Regional Weather Roundup
Issued by NWS

Home | Current Version | Previous Version | Text Only | Print | Product List | Glossary On
Versions: 1 2 3 4 5 6 7 8 9 10 11 12 13 14 15 16 17 18 19 20 21 22 23 24 25 26 27 28 29 30 31 32 33 34 35 36 37 38 39 40 41 42 43 44 45 46 47 48 49 50
000
ASCA44 KEWX 161920
RWRMX

LATIN AMERICA AND CARIBBEAN REGIONAL WEATHER ROUNDUP
NATIONAL WEATHER SERVICE AUSTIN/SAN ANTONIO TX
100 PM CST SAT DEC 16 2017

NOTE: "FAIR" INDICATED FEW OR NO CLOUDS BELOW 12,000 FEET WITH NO
SIGNIFICANT WEATHER AND/OR OBSTRUCTIONS TO VISIBILITY.

BAJA CALIFORNIA

CITY           SKY/WX    TMP DP  RH WIND       PRES   REMARKS
LORETO         PTSUNNY   77  54  44 SE12      29.88F
LA PAZ         MOSUNNY   77  45  31 MISG      29.96F
MEXICALI       CLOUDY    64  30  27 E8        29.72F
S.J. DEL CABO  SUNNY     77  57  50 SE14      29.96F
TIJUANA        PTSUNNY   61  50  67 SE8       29.76F

NORTHWESTERN MEXICO

CITY           SKY/WX    TMP DP  RH WIND       PRES   REMARKS
CULIACAN       MOSUNNY   75  57  53 SE3       29.96F
DURANGO        MOSUNNY   54  37  54 SE8       30.11F
GUAYMAS          N/A    N/A N/A N/A MISG        N/A
HERMOSILLO     PTSUNNY   75  39  27 E6        29.88F
CD. JUAREZ     SUNNY     50  25  37 SW10      29.92F WCI  46
LOS MOCHIS     MOSUNNY   73  55  53 E8        29.96F
OBREGON        CLOUDY    73  52  46 SE17      29.89F

NORTHEASTERN MEXICO

CITY           SKY/WX    TMP DP  RH WIND       PRES   REMARKS
CHIHUAHUA      MOSUNNY   54  34  47 SW12      29.98F
MATAMOROS      DRIZZLE   50  48  93 W15       30.06F WCI  45
MONCLOVA       PTSUNNY   50  43  76 CALM      30.06  FOG
MONTERREY      CLOUDY    46  45  93 NW3       30.07F FOG
NUEVO LAREDO   RAIN      46  45  93 CALM      30.11F
PIEDRAS NEGRAS CLOUDY    46  39  76 SE9       30.11F WCI  42
REYNOSA        CLOUDY    48  45  87 W6        30.06F WCI  46
CD. VICTORIA   CLOUDY    61  43  51 MISG      30.07F

WESTERN MEXICO

CITY           SKY/WX    TMP DP  RH WIND       PRES   REMARKS
AGUASCALIENTES RAIN      52  52 100 SE9       30.23F
COLIMA         PTSUNNY   70  66  88 NW12      30.07R
DEL BAJIO      CLOUDY    68  45  42 SW12      30.25F
GUADALAJARA    CLOUDY    61  55  82 SW7       30.15F HAZE
MANZANILLO     PTSUNNY   75  70  83 N9        29.97F
MAZATLAN       SUNNY     79  57  47 SW3       29.98F
P. VALLARTA    CLOUDY    72  66  83 N9        29.97F
URUAPAN        CLOUDY    64  57  77 S7        30.20F
ZACATECAS      LGT RAIN  48  43  81 SW23      30.18F WCI  41

CENTRAL MEXICO

CITY           SKY/WX    TMP DP  RH WIND       PRES   REMARKS
CUERNAVACA       N/A    N/A N/A N/A MISG        N/A
MEXICO CITY    PTSUNNY   70  34  26 S22       30.26F
MORELIA        PTSUNNY   70  50  49 S12       30.22F
POZA RICA      CLOUDY    63  54  72 N5        30.13F
PUEBLA         MOSUNNY   68  43  40 S21       30.29
QUERETARO        N/A    N/A N/A N/A MISG        N/A
S. LUIS POTOSI CLOUDY    54  36  50 NW3       30.19F
TAMPICO        CLOUDY    64  55  72 CALM      30.10F
TOLUCA         PTSUNNY   63  39  42 S18       30.34F

SOUTHERN MEXICO

CITY           SKY/WX    TMP DP  RH WIND       PRES   REMARKS
ACAPULCO       MOSUNNY   86  72  62 S9        29.90F HX  92
B. DE HUATULCO   N/A    N/A N/A N/A MISG        N/A
OAXACA         PTSUNNY   75  46  35 CALM      30.20F
P. ESCONDIDO   MOSUNNY   82  72  69 SE15      29.99F
VERACRUZ       CLOUDY    72  61  68 CALM      30.06
ZIHUATANEJO    CLOUDY    88  70  55 SW6       29.93  HX  92

YUCATAN PENINSULA

CITY           SKY/WX    TMP DP  RH WIND       PRES   REMARKS
CAMPECHE       MOSUNNY   81  73  78 E16       29.98F
CANCUN         CLOUDY    81  75  83 E10       30.05F
CHETUMAL       PTSUNNY   82  75  78 E9        29.99F
CD. DEL CARMEN   N/A    N/A N/A N/A MISG        N/A
COZUMEL        CLOUDY    75  73  94 SE7       30.03F
MERIDA         CLOUDY    77  72  83 E10       30.04F
MINATITLAN     PTSUNNY   75  70  83 N9        30.01F
TAPACHULA      MOSUNNY   91  70  49 SW9       29.86F HX  97
TUX. GUTIERREZ MOSUNNY   82  61  47 CALM      30.01F
VILLAHERMOSA   PTSUNNY   77  68  73 CALM      30.03F

CENTRAL AMERICA

CITY           SKY/WX    TMP DP  RH WIND       PRES   REMARKS
BELIZE CITY    MOSUNNY   82  77  83 E7        29.97F HX  91
MANAGUA        PTCLDY    79  75  89 E14       29.83S

CARIBBEAN

CITY           SKY/WX    TMP DP  RH WIND       PRES   REMARKS
ARUBA          MOSUNNY   86  77  74 NE16G28   29.89S HX  97
CURACAO        MOSUNNY   82  73  74 E14       29.89F
KINGSTON       MOSUNNY   90  70  51 S10       29.94F HX  95
NASSAU         PTSUNNY   82  64  54 N9        30.14F
SAN JUAN       MOSUNNY   84  73  70 E15       30.03F HX  91
SANTO DOMINGO  MOSUNNY   90  77  66 E13       29.97F HX 102
ST. CROIX      MOSUNNY   84  73  70 NE17G24   30.00  HX  91
ST. KITTS      MOSUNNY   82  70  65 NE16      29.97F
ST. MAARTEN    MOSUNNY   84  70  61 E15       30.00F
ST. THOMAS     PTSUNNY   82  75  78 E14       30.01F

$$




USA.gov is the U.S. government's official web portal to all federal, state and local government web resources and services.